Voltar ao catálogo

STARLINK-1556

AtivoComunicaçõesVLEO
NORAD 46033·PAYLOAD·🇺🇸 United States

Lançado Aug 7, 2020 de Cape Canaveral Space Force Station

Loading…

Próximas Passagens (próximas 24 horas)

TLE

AtualizadoSource: CelesTrak SupGP

Época: Sep 14, 2026, 21:57 UTC

1 46033C 20055G   26257.91506944 -.00019674  00000+0 -63257-3 0  2579
2 46033  53.1598 326.8102 0000996  85.9180 151.1203 15.31716755    11

Acompanhe STARLINK-1556 em tempo real com AllMySat

Download on the App Store